timestamp,surface_pressure_avg,surface_temp_avg,battery_voltage,lat,long
2018-03-30 00:00:00+00:00,321.9563,1.7,12.65,47.84626,-54.09684
2018-03-30 00:10:00+00:00,324.948,1.7,12.65,47.84626,-54.09684
2018-03-30 00:20:00+00:00,318.7081,1.7,12.65,47.84626,-54.09684
2018-03-30 00:30:00+00:00,311.6997,1.7,12.65,47.84626,-54.09684
2018-03-30 00:40:00+00:00,308.7147,1.69,12.65,47.84626,-54.09684
2018-03-30 00:50:00+00:00,301.1964,1.7,12.65,47.84626,-54.09684
2018-03-30 01:00:00+00:00,284.2214,1.7,12.65,47.84626,-54.09684
2018-03-30 01:10:00+00:00,274.9914,1.74,12.57,47.84626,-54.09684
2018-03-30 01:20:00+00:00,271.0248,1.78,12.65,47.84626,-54.09684
2018-03-30 01:30:00+00:00,262.213,1.7,12.65,47.84626,-54.09684
2018-03-30 01:40:00+00:00,245.5264,1.7,12.65,47.84626,-54.09684
2018-03-30 01:50:00+00:00,234.8814,1.7,12.65,47.84626,-54.09684
2018-03-30 02:00:00+00:00,232.1464,1.7,12.65,47.84626,-54.09684
2018-03-30 02:10:00+00:00,228.8481,1.7,12.57,47.84626,-54.09684
2018-03-30 02:20:00+00:00,220.7598,1.7,12.65,47.84626,-54.09684
2018-03-30 02:30:00+00:00,217.6948,1.7,12.65,47.84626,-54.09684
2018-03-30 02:40:00+00:00,219.7248,1.75,12.65,47.84626,-54.09684
2018-03-30 02:50:00+00:00,214.7347,1.8,12.65,47.84626,-54.09684
2018-03-30 03:00:00+00:00,203.6548,1.8,12.65,47.84626,-54.09684
2018-03-30 03:10:00+00:00,202.1914,1.8,12.57,47.84626,-54.09684
2018-03-30 03:20:00+00:00,205.1815,1.8,12.65,47.84626,-54.09684
2018-03-30 03:30:00+00:00,199.3081,1.78,12.65,47.84626,-54.09684
2018-03-30 03:40:00+00:00,190.0515,1.8,12.65,47.84626,-54.09684
2018-03-30 03:50:00+00:00,190.1748,1.77,12.65,47.84626,-54.09684
2018-03-30 04:00:00+00:00,192.9331,1.78,12.65,47.84626,-54.09684
2018-03-30 04:10:00+00:00,189.1515,1.76,12.57,47.84626,-54.09684
2018-03-30 04:20:00+00:00,191.5514,1.77,12.65,47.84626,-54.09684
2018-03-30 04:30:00+00:00,198.5681,1.79,12.65,47.84626,-54.09684
2018-03-30 04:40:00+00:00,201.9781,1.79,12.65,47.84626,-54.09684
2018-03-30 04:50:00+00:00,204.9831,1.77,12.65,47.84626,-54.09684
2018-03-30 05:00:00+00:00,206.3965,1.79,12.57,47.84626,-54.09684
2018-03-30 05:10:00+00:00,204.6998,1.75,12.57,47.84626,-54.09684
2018-03-30 05:20:00+00:00,201.5748,1.7,12.65,47.84626,-54.09684
2018-03-30 05:30:00+00:00,201.9797,1.74,12.65,47.84626,-54.09684
2018-03-30 05:40:00+00:00,203.5948,1.7,12.65,47.84626,-54.09684
2018-03-30 05:50:00+00:00,199.9414,1.72,12.65,47.84626,-54.09684
2018-03-30 06:00:00+00:00,200.6831,1.76,12.57,47.84626,-54.09684
2018-03-30 06:10:00+00:00,208.9264,1.76,12.57,47.84626,-54.09684
2018-03-30 06:20:00+00:00,216.4914,1.79,12.65,47.84626,-54.09684
2018-03-30 06:30:00+00:00,224.2114,1.79,12.65,47.84626,-54.09684
2018-03-30 06:40:00+00:00,233.1014,1.78,12.65,47.84626,-54.09684
2018-03-30 06:50:00+00:00,243.4064,1.76,12.65,47.84626,-54.09684
2018-03-30 07:00:00+00:00,247.6564,1.7,12.57,47.84626,-54.09684
2018-03-30 07:10:00+00:00,248.6347,1.7,12.57,47.84626,-54.09684
2018-03-30 07:20:00+00:00,252.8448,1.7,12.65,47.84626,-54.09684
2018-03-30 07:30:00+00:00,258.2881,1.7,12.65,47.84626,-54.09684
2018-03-30 07:40:00+00:00,264.6131,1.7,12.65,47.84626,-54.09684
2018-03-30 07:50:00+00:00,272.6747,1.7,12.65,47.84626,-54.09684
2018-03-30 08:00:00+00:00,281.103,1.7,12.57,47.84626,-54.09684
2018-03-30 08:10:00+00:00,290.238,1.6,12.57,47.84626,-54.09684
2018-03-30 08:20:00+00:00,302.848,1.6,12.65,47.84626,-54.09684
2018-03-30 08:30:00+00:00,311.1247,1.6,12.65,47.84626,-54.09684
2018-03-30 08:40:00+00:00,320.693,1.6,12.65,47.84626,-54.09684
2018-03-30 08:50:00+00:00,333.4196,1.59,12.65,47.84626,-54.09684
2018-03-30 09:00:00+00:00,341.4846,1.59,12.57,47.84626,-54.09684
2018-03-30 09:10:00+00:00,340.913,1.6,12.57,47.84626,-54.09684
2018-03-30 09:20:00+00:00,347.6079,1.6,12.65,47.84626,-54.09684
2018-03-30 09:30:00+00:00,359.2579,1.6,12.65,47.84626,-54.09684
2018-03-30 09:40:00+00:00,364.1462,1.6,12.65,47.84626,-54.09684
2018-03-30 09:50:00+00:00,366.0428,1.6,12.65,47.84626,-54.09684
2018-03-30 10:00:00+00:00,375.4663,1.6,12.57,47.84626,-54.09684
2018-03-30 10:10:00+00:00,381.4312,1.6,12.57,47.84626,-54.09684
2018-03-30 10:20:00+00:00,387.993,1.6,12.65,47.84626,-54.09684
2018-03-30 10:30:00+00:00,388.9763,1.6,12.65,47.84626,-54.09684
2018-03-30 10:40:00+00:00,386.3696,1.6,12.73,47.84626,-54.09684
2018-03-30 10:50:00+00:00,388.0162,1.6,12.81,47.84626,-54.09684
2018-03-30 11:00:00+00:00,389.0413,1.6,12.73,47.84626,-54.09684
2018-03-30 11:10:00+00:00,385.4346,1.5,12.81,47.84626,-54.09684
2018-03-30 11:20:00+00:00,381.0847,1.6,12.97,47.84626,-54.09684
2018-03-30 11:30:00+00:00,372.5912,1.6,12.89,47.84626,-54.09684
2018-03-30 11:40:00+00:00,371.4329,1.64,12.81,47.84626,-54.09684
2018-03-30 11:50:00+00:00,372.1495,1.68,12.81,47.84626,-54.09684
2018-03-30 12:00:00+00:00,366.8729,1.69,12.73,47.84626,-54.09684
2018-03-30 12:10:00+00:00,356.4229,1.6,12.73,47.84626,-54.09684
2018-03-30 12:20:00+00:00,355.4747,1.62,12.73,47.84626,-54.09684
2018-03-30 12:30:00+00:00,351.1595,1.6,12.73,47.84626,-54.09684
2018-03-30 12:40:00+00:00,343.6146,1.6,12.81,47.84626,-54.09684
2018-03-30 12:50:00+00:00,343.2913,1.63,12.73,47.84626,-54.09684
2018-03-30 13:00:00+00:00,338.4047,1.68,12.65,47.84626,-54.09684
2018-03-30 13:10:00+00:00,328.9246,1.7,12.73,47.84626,-54.09684
2018-03-30 13:20:00+00:00,316.488,1.7,12.73,47.84626,-54.09684
2018-03-30 13:30:00+00:00,309.3396,1.71,12.73,47.84626,-54.09684
2018-03-30 13:40:00+00:00,305.203,1.72,12.73,47.84626,-54.09684
2018-03-30 13:50:00+00:00,300.2563,1.76,12.73,47.84626,-54.09684
2018-03-30 14:00:00+00:00,288.118,1.8,12.65,47.84626,-54.09684
2018-03-30 14:10:00+00:00,277.8397,1.76,12.97,47.84626,-54.09684
2018-03-30 14:20:00+00:00,266.2531,1.8,12.81,47.84626,-54.09684
2018-03-30 14:30:00+00:00,254.9314,1.74,12.81,47.84626,-54.09684
2018-03-30 14:40:00+00:00,248.118,1.76,12.81,47.84626,-54.09684
2018-03-30 14:50:00+00:00,241.3597,1.78,12.73,47.84626,-54.09684
2018-03-30 15:00:00+00:00,234.0797,1.7,12.73,47.84626,-54.09684
2018-03-30 15:10:00+00:00,232.0464,1.7,12.65,47.84626,-54.09684
2018-03-30 15:20:00+00:00,228.3231,1.7,12.73,47.84626,-54.09684
2018-03-30 15:30:00+00:00,218.1564,1.7,12.73,47.84626,-54.09684
2018-03-30 15:40:00+00:00,213.3315,1.69,12.73,47.84626,-54.09684
2018-03-30 15:50:00+00:00,204.1081,1.6,12.73,47.84626,-54.09684
2018-03-30 16:00:00+00:00,187.7415,1.65,12.65,47.84626,-54.09684
2018-03-30 16:10:00+00:00,181.4232,1.67,12.73,47.84626,-54.09684
2018-03-30 16:20:00+00:00,183.0565,1.64,12.73,47.84626,-54.09684
2018-03-30 16:30:00+00:00,183.3081,1.62,12.73,47.84626,-54.09684
2018-03-30 16:40:00+00:00,185.0698,1.65,12.73,47.84626,-54.09684
2018-03-30 16:50:00+00:00,186.4865,1.7,12.73,47.84626,-54.09684
2018-03-30 17:00:00+00:00,181.5298,1.77,12.65,47.84626,-54.09684
2018-03-30 17:10:00+00:00,184.7448,1.79,12.73,47.84626,-54.09684
2018-03-30 17:20:00+00:00,191.9548,1.78,12.73,47.84626,-54.09684
2018-03-30 17:30:00+00:00,189.5765,1.76,12.73,47.84626,-54.09684
2018-03-30 17:40:00+00:00,188.2715,1.79,12.73,47.84626,-54.09684
2018-03-30 17:50:00+00:00,187.3215,1.8,12.73,47.84626,-54.09684
2018-03-30 18:00:00+00:00,182.8048,1.87,12.65,47.84626,-54.09684
2018-03-30 18:10:00+00:00,181.6398,2.07,12.65,47.84626,-54.09684
2018-03-30 18:20:00+00:00,187.8615,2.34,12.65,47.84626,-54.09684
2018-03-30 18:30:00+00:00,197.3065,2.57,12.65,47.84626,-54.09684
2018-03-30 18:40:00+00:00,201.4381,2.69,12.65,47.84626,-54.09684
2018-03-30 18:50:00+00:00,209.3081,2.6,12.65,47.84626,-54.09684
2018-03-30 19:00:00+00:00,215.6431,2.44,12.65,47.84626,-54.09684
2018-03-30 19:10:00+00:00,220.8547,2.3,12.65,47.84626,-54.09684
2018-03-30 19:20:00+00:00,228.6181,1.84,12.65,47.84626,-54.09684
2018-03-30 19:30:00+00:00,236.4881,1.6,12.65,47.84626,-54.09684
2018-03-30 19:40:00+00:00,239.2214,1.59,12.65,47.84626,-54.09684
2018-03-30 19:50:00+00:00,240.5031,1.59,12.65,47.84626,-54.09684
2018-03-30 20:00:00+00:00,247.1365,1.57,12.65,47.84626,-54.09684
2018-03-30 20:10:00+00:00,258.9931,1.51,12.65,47.84626,-54.09684
2018-03-30 20:20:00+00:00,265.7481,1.5,12.65,47.84626,-54.09684
2018-03-30 20:30:00+00:00,274.3947,1.5,12.65,47.84626,-54.09684
2018-03-30 20:40:00+00:00,285.7297,1.5,12.65,47.84626,-54.09684
2018-03-30 20:50:00+00:00,298.3314,1.5,12.65,47.84626,-54.09684
2018-03-30 21:00:00+00:00,304.9463,1.5,12.65,47.84626,-54.09684
2018-03-30 21:10:00+00:00,318.7714,1.5,12.65,47.84626,-54.09684
2018-03-30 21:20:00+00:00,321.3496,1.5,12.65,47.84626,-54.09684
2018-03-30 21:30:00+00:00,320.708,1.5,12.65,47.84626,-54.09684
2018-03-30 21:40:00+00:00,330.3946,1.5,12.65,47.84626,-54.09684
2018-03-30 21:50:00+00:00,346.9812,1.5,12.65,47.84626,-54.09684
2018-03-30 22:00:00+00:00,348.4996,1.5,12.65,47.84626,-54.09684
2018-03-30 22:10:00+00:00,338.5979,1.5,12.65,47.84626,-54.09684
2018-03-30 22:20:00+00:00,345.6313,1.5,12.65,47.84626,-54.09684
2018-03-30 22:30:00+00:00,354.108,1.5,12.65,47.84626,-54.09684
2018-03-30 22:40:00+00:00,351.2896,1.5,12.65,47.84626,-54.09684
2018-03-30 22:50:00+00:00,358.5012,1.49,12.65,47.84626,-54.09684
2018-03-30 23:00:00+00:00,366.1562,1.48,12.65,47.84626,-54.09684
2018-03-30 23:10:00+00:00,365.1963,1.48,12.65,47.84626,-54.09684
2018-03-30 23:20:00+00:00,353.3613,1.47,12.65,47.84626,-54.09684
2018-03-30 23:30:00+00:00,362.493,1.4,12.65,47.84626,-54.09684
2018-03-30 23:40:00+00:00,375.5696,1.44,12.65,47.84626,-54.09684
2018-03-30 23:50:00+00:00,366.7462,1.41,12.65,47.84626,-54.09684
